一网星座-0226星 (ONEWEB-0226 )

导读

ONEWEB-0226是英国OneWeb公司低轨宽带卫星星座的一员,于2021年5月28日发射入轨,归属英国(GB)。OneWeb旨在搭建全球卫星互联网星座,通过近地轨道卫星群向全球提供高速天基互联网接入服务。ONEWEB-0226作为组网卫星,承担着扩展星座覆盖范围、增强网络服务能力的作用,助力OneWeb实现全球无缝连接的通信布局,推动全球偏远地区互联网普及与天地一体化通信网络建设。

Basic Information
目录编号:
48793
目录名称:
ONEWEB-0226
国际标识:
2021-045AC
轨道中心:
EARTH
卫星名称:
一网星座-0226星
卫星全名:
一网星座-0226星 (ONEWEB-0226 )
卫星状态:
在轨 (已飞行1841 天)
发射日期:
2021-05-28 UTC
国别 :
英国 (GB)
星等 :
--
Orbit Information
数据来源 国际轨道数据 AOE轨道数据
星历时间 2026-06-12T14:13:01+0800
16小时前
查看轨道信息
2026-06-11T04:00:00+0800
2天前
查看轨道信息
半长轴 7579.902km 7579.897km
偏心率 0.0001693 0.0001487
轨道倾角 87.900° 87.902°
近地点辐角 98.194° 60.224°
升交点赤经 260.175° 260.459°
平近点角 261.939° 31.666°
近地点 1200.481km 1200.632km
远地点 1203.049km 1202.888km
周期 109.460分钟 109.460分钟
每日圈数 13.155502 13.155514
Detailed Information
平衡模式:
三轴稳定
覆盖范围:
全球
运营商:
一网卫星公司
运营商所在国:
英国
制造商(研发单位):
一网卫星公司
制造商所在国:
英国
使用方式:
暂无
Satellite Introduction
OneWeb卫星网络由648颗重约125公斤的微型卫星组成,运行在1200公里的轨道上。 每颗卫星都能够提供至少每秒8千兆位的吞吐量,以使用其高吞吐量的Ku频段有效载荷为家庭和移动平台提供互联网接入。该卫星仍在工作。
2D Orbit Map
3D Orbit Map
Orbit Altitude Analysis Chart
Orbit Inclination Analysis Chart
Orbit Comprehensive Analysis Chart
View Comprehensive Chart